Regional Weather Roundup
Issued by NWS

Home | Current Version | Previous Version | Text Only | Print | Product List | Glossary On
Versions: 1 2 3 4 5 6 7 8 9 10 11 12 13 14 15 16 17 18 19 20 21 22 23 24 25 26 27 28 29 30 31 32 33 34 35 36 37 38 39 40 41 42 43 44 45 46 47 48 49 50
000
ASUS42 KTBW 200716
RWRFL
FLORIDA REGIONAL WEATHER ROUNDUP
NATIONAL WEATHER SERVICE TAMPA BAY RUSKIN FL
200 AM EST FRI JAN 20 2017

NOTE: "FAIR" INDICATES FEW OR NO CLOUDS BELOW 12,000 FEET WITH NO
SIGNIFICANT WEATHER AND/OR OBSTRUCTIONS TO VISIBILITY.

FLZ001>010-012>015-112-114-115-200800-
PANHANDLE FLORIDA

CITY           SKY/WX    TMP DP  RH WIND       PRES   REMARKS
PENSACOLA      MOCLDY    66  64  93 SW6       29.84S
PENSACOLA NAS  MOCLDY    65  63  93 SW3       29.83F
MILTON NAS     LGT RAIN  64  64 100 SW6       29.84
CRESTVIEW      CLOUDY    65  63  93 S7        29.85R
DUKE FIELD     CLOUDY    66  64  94 S9        29.83R
VALPARAISO     MOCLDY    67  66  97 S5        29.83F
MARY ESTHER    CLEAR     66  58  74 S9        29.83S
PANAMA CITY    MOCLDY    65  63  93 SE8       29.84S
TYNDALL AFB    LGT RAIN  64  63  95 SE7       29.86F
APALACHICOLA   HVY RAIN  66  66 100 W14G26    29.94R

STATION/POSITION SKY/WX   TEMP    WIND        PRES    WAVE   SWELL
                          AIR SEA DIR/SP/G            HT/PER HT/PER
                          (F)     (DEG/KT/KT) (MB)    (FT/S) (FT/S)
30.1N   87.6W              66 66  200/  8/  8 1010.5F   4/ 6   3/ 6
28.8N   86.0W              67 75              1013.3R   5/ 6
PANAMA CITY BEAC           65 67  150/ 15/ 17 1010.7F
TOWER C                    72     210/ 11/ 12 1013.4R
28.5N   84.5W              74 73  210/ 14/ 16 1013.2S   3/ 4

$$
FLZ011-016>038-118-127-128-134-139-239-200800-
NORTH FLORIDA

CITY           SKY/WX    TMP DP  RH WIND       PRES   REMARKS
MARIANNA       LGT RAIN  68  66  93 S12G20    29.82F
TALLAHASSEE    LGT RAIN  65  65 100 SE3       29.93R
PERRY          CLOUDY    64  63  94 CALM      29.95S
CROSS CITY     CLOUDY    57  57 100 S3        29.95F
LAKE CITY      FAIR      61  61 100 CALM      29.95F
GAINESVILLE    HAZE      62  57  83 CALM      29.97S VSB 1/2
WILLISTON      CLEAR     59  59 100 CALM      29.97S FOG
PALATKA        CLOUDY    57  57 100 CALM      29.98S
MAYPORT NAS    CLOUDY    64  62  93 SW7       29.97R
JACKSONVILLE   CLOUDY    61  61 100 S3        29.95F
JAX NAS        MOCLDY    64  62  93 S3        29.97S
FERNANDINA BEA FAIR      66  63  88 S5        29.95S
ST AUGUSTINE   PTCLDY    64  62  93 SW5       29.98R

STATION/POSITION SKY/WX   TEMP    WIND        PRES    WAVE   SWELL
                          AIR SEA DIR/SP/G            HT/PER HT/PER
                          (F)     (DEG/KT/KT) (MB)    (FT/S) (FT/S)
SHELL POINT      NOT AVBL
KEATON BEACH               67     170/ 11/ 13 1013.5F
CEDAR KEY                  66     200/  9/ 11 1014.7F
FERNANDINA                 64 64  160/  3/  4 1015.0F
30.7N   81.3W                 64                N/A     1/10
MAYPORT                    65 63  220/  5/  6 1015.0R
31.4N   80.9W              61 60  180/  4/  4 1014.0F   2/10   2/10
ST AUGUSTINE               63 62  230/  4/  5 1015.5R

$$
FLZ040-043>046-052-053-057-058-063-144-200800-
INTERIOR CENTRAL FLORIDA

CITY           SKY/WX    TMP DP  RH WIND       PRES   REMARKS
OCALA          PTCLDY    55  52  88 CALM      29.97F
THE VILLAGES     N/A     61  61 100 CALM      29.88F
LEESBURG       CLOUDY    62  61  96 CALM      29.99S
SANFORD        PTCLDY    64  62  93 W3        29.98S
ORLANDO EXEC   PTCLDY    65  60  84 CALM      29.98R
ORLANDO INTL   MOCLDY    61  58  90 S3        29.99R
KISSIMMEE      MOCLDY    63  60  90 CALM      30.00R
WINTER HAVEN   PTCLDY    63  58  83 S3        30.00R
LAKELAND       MOCLDY    59  59 100 CALM      29.99R
BARTOW         FAIR      57  57 100 S3        29.99S
OKEECHOBEE     CLOUDY    54  54 100 CALM      30.00R

$$
FLZ041-047-054-059-064-141-147-200800-
EAST CENTRAL FLORIDA

CITY           SKY/WX    TMP DP  RH WIND       PRES   REMARKS
DAYTONA BEACH  MOCLDY    60  60 100 SW3       29.98S FOG
DELAND         CLOUDY    61  61 100 CALM      29.98S
JFK SPACE CTR  PTCLDY    66  64  94 W3        29.97S
CAPE CANAVERAL MOCLDY    66  62  87 SW5       29.97R
PATRICK AFB    PTCLDY    67  63  86 SW10      29.98R
MELBOURNE      CLOUDY    64  60  87 SW3       29.98R
VERO BEACH     CLOUDY    63  59  87 SW3       29.99R
FT PIERCE      CLOUDY    60  59  96 SW3       29.99R
STUART         PTCLDY    66  63  88 SW3       30.01R

STATION/POSITION SKY/WX   TEMP    WIND        PRES    WAVE   SWELL
                          AIR SEA DIR/SP/G            HT/PER HT/PER
                          (F)     (DEG/KT/KT) (MB)    (FT/S) (FT/S)
TRIDENT PIER     NOT AVBL
28.4N   80.5W                 70                N/A     2/ 3
27.5N   80.2W                 76                N/A     2/ 3

$$
FLZ050-056-061-142-242-148-248-149-249-151-251-155-255-
160-260-200800-
WEST CENTRAL FLORIDA

CITY           SKY/WX    TMP DP  RH WIND       PRES   REMARKS
CRYSTAL RIVER  FAIR      57  55  94 CALM      29.97S
INVERNESS      MOCLDY    55  55 100 CALM      29.98S FOG
BROOKSVILLE    PTCLDY    58  56  93 CALM      29.98S
CLEARWATER AIR FAIR      66  63  88 S3        29.97S
ST PETE CLEARW MOCLDY    68  62  81 SW7       29.97S
TAMPA INTL     PTCLDY    68  63  84 S6        29.97F
TAMPA EXEC     MOCLDY    59  55  88 CALM      29.99R FOG
PLANT CITY     CLOUDY    63  61  94 CALM      30.00S
MACDILL AFB    MOCLDY    65  65 100 NW6       29.97S
PETER O KNIGHT MOCLDY    68  66  94 CALM      29.98R
ST PETERSBURG  MOCLDY    68  63  84 SW6       29.96S
SARASOTA       PTCLDY    68  63  84 S7        29.96S
VENICE         FAIR      66  66 100 S3        29.99R

STATION/POSITION SKY/WX   TEMP    WIND        PRES    WAVE   SWELL
                          AIR SEA DIR/SP/G            HT/PER HT/PER
                          (F)     (DEG/KT/KT) (MB)    (FT/S) (FT/S)
27.3N   84.2W                 78                N/A     3/ 4
CLEARWATER BEACH           68 67  190/ 11/ 14 1014.8R
MIDDLE TAMPA BAY           68     210/  8/  9 1015.1S
VENICE                     69 69  180/  4/  5 1015.1R

$$
FLZ066-069-070-075>078-162-262-165-265-200800-
SOUTHWEST FLORIDA AND KEYS

CITY           SKY/WX    TMP DP  RH WIND       PRES   REMARKS
PUNTA GORDA    FOG       54  54 100 CALM      30.00S VSB 1/2
FT MYERS       PTCLDY    62  60  93 CALM      29.98S
SOUTHWEST INTL PTCLDY    62  58  86 CALM      29.98S
NAPLES         CLOUDY    61  60  97 CALM      29.98R
MARCO ISLAND   CLEAR     61  57  88 N3        29.98S
MARATHON       CLEAR     76  63  64 S8        29.95F
KEY WEST NAS   CLEAR     74  64  71 S12       29.96F
KEY WEST INTL  PTCLDY    75  66  73 S13       29.96F

STATION/POSITION SKY/WX   TEMP    WIND        PRES    WAVE   SWELL
                          AIR SEA DIR/SP/G            HT/PER HT/PER
                          (F)     (DEG/KT/KT) (MB)    (FT/S) (FT/S)
NAPLES                        71              1015.1R
26.0N   85.6W              75 75  180/ 12/ 14 1014.0F   2/ 4   2/ 6
DRY TORTUGAS               75     180/ 12/ 12 1014.4R
SAND KEY                   76     190/ 14/ 16 1014.7F
LONG KEY                   74 75  160/  9/  9 1015.1F

$$
FLZ067-068-071>074-168-172>174-200800-
SOUTHEAST FLORIDA

CITY           SKY/WX    TMP DP  RH WIND       PRES   REMARKS
W PALM BEACH   MOCLDY    66  62  87 W6        29.99S
FT LAUDER-EXEC PTCLDY    65  61  87 CALM      29.98R
FT LAUDERDALE  CLEAR     66  63  90 NW3       29.97S
POMPANO BEACH  PTCLDY    66  62  87 CALM      29.98S
PEMBROKE PINES PTCLDY    62  60  93 CALM      29.99S
OPA LOCKA      CLEAR     63  61  93 NW3       29.98S
MIAMI          MOCLDY    68  61  78 CALM      29.98S
WEST KENDALL   PTCLDY    60  58  92 CALM      29.97F
HOMESTEAD      PTCLDY    61  61 100 CALM      29.96F

STATION/POSITION SKY/WX   TEMP    WIND        PRES    WAVE   SWELL
                          AIR SEA DIR/SP/G            HT/PER HT/PER
                          (F)     (DEG/KT/KT) (MB)    (FT/S) (FT/S)
PORT EVERGLADES            71     270/  4/  5 1014.9S
VIRGINIA KEY               73 80  180/  5/  6 1015.1F
LAKE WORTH                 70 77  270/  5/  8 1015.0R
FOWEY ROCKS                74 75  160/ 14/ 15 1015.1F

$$




USA.gov is the U.S. government's official web portal to all federal, state and local government web resources and services.